Location: Gorze? G�rny
(49.8500°N, 19.5000°E)
Time: 13:12:40
(UTC+00:00)

Cosmos 44 - Pass Details

Date: 13 May 2021
Orbit: 571 x 791 km, 65.1° (Epoch: 22 June)

Event Time Altitude Azimuth Distance (km) Brightness Sun altitude
Rises 21:16:27 0° 316° (NW) 3,295 8.0 -19.2°
Reaches altitude 10° 21:19:02 10° 310° (NW) 2,355 6.9 -19.3°
Maximum altitude 21:24:04 40° 242° (WSW) 1,124 4.2 -19.6°
Enters shadow 21:25:46 31° 201° (SSW) 1,311 4.3 -19.7°
